sat.trackr.live / text

‹ back to catalog

2024-173D

NORAD 61230 · 2024-173D

PAYLOAD ACTIVE UNKNOWN

§ Identity

Operator
Country
PRC
Launch date
2024-09-24
Launch site
YSLA
Launch vehicle
Mass (kg)
RCS (m²)

External: N2YO · Heavens-Above · Gunter

§ Orbital elements

Epoch: 2026-05-25T04:38:29.408352Z

Period
94.16 min
Inclination
97.3557°
Eccentricity
0.0008304
Mean motion
15.29306612 rev/d
Perigee alt
472.2 km
Apogee alt
483.6 km
Semi-major
6,856.0 km
B*
5.1478e-4
RAAN
224.6744°
Arg perigee
348.8281°
Mean anomaly
11.2774°
Rev number
9,294

§ Raw data

2024-173D1 61230U 24173D   26145.19339593  .00014586  00000+0  51478-3 0  99902 61230  97.3557 224.6744 0008304 348.8281  11.2774 15.29306612 92949

JSON: /api/v1/satellites/61230 · /tle

For live sub-satellite position, see the globe view (requires WebGL).

§ Visibility from observer

Set your observer location to see the next 7 days of passes ≥ 10°. The values pass through the URL so the page stays shareable.

No JS? Fill the form by hand. The geolocation button needs JavaScript.